GFSNW_con_3kmhel_096.txt.gz
Helicity
1 38 2 -16 -5 13 57 138 179 108 59 186 183 155 178 156 102 114 121 136 127 125 142 165 150 112 59 115 134 164 126 95 80 112 109 126 188 119 51 100 102 71 66 69
74 24 46 22 45 58 166 170 123 97 50 177 140 135 100 86 111 95 108 111 118 122 92 77 63 77 72 34 87 104 141 58 61 48 80 87 110 133 145 197 184 112 91 128
67 103 38 9 21 50 106 159 153 161 149 144 131 94 79 71 56 55 28 80 127 113 77 67 86 55 78 78 151 169 143 117 122 139 173 180 171 153 142 110 145 102 77 75
-23 26 35 18 58 60 90 135 164 142 158 102 88 97 102 35 40 31 42 61 39 46 63 42 37 52 76 104 115 124 124 74 79 93 111 119 85 81 153 113 72 74 56 82
17 25 16 12 -2 53 123 180 161 105 94 84 75 40 -0 -11 14 12 22 12 10 16 14 15 72 58 59 71 97 129 104 109 127 41 21 40 52 61 40 44 68 42 -0 1
28 37 15 17 43 70 137 147 88 106 93 35 18 19 -9 -16 -10 -4 4 25 29 11 15 9 32 29 47 54 95 113 115 93 56 20 29 32 48 37 50 45 41 50 31 19
-0 17 11 6 43 46 110 98 97 93 16 -5 -20 -4 2 -4 18 23 39 19 43 41 25 13 64 21 29 20 11 13 48 36 61 76 64 22 32 62 21 47 72 82 42 43
-1 6 9 9 29 28 74 75 128 22 39 28 45 37 24 24 42 73 79 63 17 20 43 65 53 11 11 10 18 -7 13 26 42 44 10 16 99 25 16 46 110 53 20 48
12 5 -9 -14 -12 9 28 -50 20 69 46 51 73 65 49 35 42 53 92 67 43 42 25 46 23 18 43 43 23 27 4 25 37 36 56 64 30 145 83 58 146 100 109 239
5 5 -1 -13 -6 -5 -7 24 -12 -11 -4 -31 31 -6 80 33 39 85 41 58 40 16 12 -0 -3 9 14 24 25 26 59 69 34 23 27 43 73 61 59 64 130 79 102 184
-18 -11 -5 4 22 18 -27 -23 -19 15 -3 -11 -48 -72 -15 10 -2 52 3 -25 26 -8 -5 -7 -3 19 19 34 38 14 10 4 21 29 26 45 53 15 114 114 176 116 61 177
-20 -41 -38 -8 6 16 6 -23 -26 6 -6 -6 -9 3 -14 -14 -4 -6 12 21 -8 -3 6 -9 4 15 23 50 36 -4 30 18 19 19 33 -3 15 11 69 143 142 171 22 353
-3 1 4 -0 -1 5 -1 22 77 42 9 24 14 27 -1 -35 6 22 31 23 17 -11 -3 -7 18 11 19 41 57 41 13 -27 12 5 -13 -7 -10 51 141 51 67 41 -30 134
-0 3 14 -0 -15 7 -17 1 238 73 131 109 4 -56 -10 137 41 13 30 42 15 32 29 27 -12 -10 -0 -2 37 46 32 2 -3 10 13 -0 -29 -18 34 37 81 17 25 -44
3 -5 -15 -25 -21 2 56 135 227 226 201 21 -1 68 23 -27 -5 76 22 31 22 27 56 55 19 -4 -17 -39 -27 44 44 30 -1 15 -0 -4 11 12 25 81 93 65 13 -18
1 2 -5 -8 15 28 96 134 144 163 162 107 37 38 10 28 22 29 18 1 21 42 73 106 57 32 25 7 -2 5 10 23 22 50 39 -16 -2 22 67 40 46 45 50 47
19 18 36 14 27 62 140 124 77 187 207 123 111 93 100 69 36 57 59 26 46 68 87 108 74 2 30 -11 -18 14 20 22 31 33 33 21 14 17 71 41 26 56 100 81
14 37 -0 30 40 187 194 147 76 312 199 139 156 141 120 82 96 71 74 78 82 66 77 75 90 51 73 -19 -24 -21 -7 31 68 79 21 7 2 -6 52 50 37 66 132 135
16 9 39 108 220 235 194 113 109 144 151 99 105 94 76 111 95 98 89 99 101 81 98 109 96 100 121 75 23 -10 -10 13 61 54 17 28 13 30 62 80 67 68 128 178
24 197 255 226 258 151 121 201 140 110 83 115 60 74 87 76 57 64 78 90 96 65 60 113 163 90 69 62 36 13 45 39 34 23 29 26 23 31 69 72 80 68 106 167
229 267 296 199 172 289 197 95 105 78 39 51 92 73 93 70 53 69 44 37 74 26 61 71 88 58 42 40 66 108 100 53 52 32 39 44 41 38 64 87 83 104 123 160
184 361 329 327 144 154 88 116 108 47 30 36 66 72 66 85 71 57 52 6 27 17 87 81 65 120 175 155 126 75 40 33 50 61 60 69 95 102 111 81 105 121 150 184
309 349 283 198 161 116 48 54 77 55 18 47 57 79 81 68 63 52 50 52 17 72 39 65 142 161 140 95 62 18 9 11 18 54 78 128 157 139 145 192 145 104 180 236
326 251 219 189 122 121 105 106 96 78 60 40 10 72 90 117 122 30 -15 -33 25 -32 -9 23 95 58 52 22 -2 3 12 1 21 52 81 111 136 178 202 241 198 212 256 303
184 177 141 100 117 125 107 105 93 97 64 46 63 55 25 98 43 57 61 -5 -58 -27 36 56 34 19 1 -9 -13 -14 -2 13 41 81 113 154 184 214 252 282 274 308 394 426
76 96 74 132 109 117 127 120 87 85 95 99 57 30 5 31 58 17 36 16 31 58 49 34 21 20 19 6 2 38 63 68 75 119 158 206 261 301 344 412 458 474 495 566
32 92 132 111 83 93 98 97 84 104 110 85 100 15 -0 38 3 23 108 80 82 76 68 63 83 43 13 15 19 36 49 52 71 96 122 169 208 227 345 401 391 460 527 535

GFSNW_con_3kmhel_102.txt.gz
Helicity
62 58 59 43 40 29 56 90 129 74 187 152 212 142 60 57 57 45 96 120 169 174 153 114 103 93 43 69 90 223 210 243 206 98 37 70 143 37 44 65 47 47 11 48
49 50 50 53 32 45 56 101 16 67 88 148 92 50 55 26 18 95 119 83 78 80 103 123 113 109 86 110 109 107 127 122 40 41 74 54 55 45 48 5 10 42 83 42
49 46 35 23 28 37 78 104 50 78 107 77 29 -1 -3 28 25 89 59 56 48 81 89 90 95 98 53 24 45 127 123 124 151 103 98 78 169 194 144 15 99 10 51 45
35 27 20 16 22 22 118 28 2 37 51 40 31 30 -2 53 5 82 15 39 40 59 82 76 58 35 17 15 60 59 67 44 107 171 117 106 154 167 237 198 68 19 40 74
22 14 4 10 8 14 143 51 34 70 18 20 34 20 37 91 56 13 11 8 15 10 22 28 30 43 62 64 57 43 36 -9 18 100 100 87 55 50 140 241 204 144 171 101
-12 -9 -17 -4 10 28 201 98 24 75 84 32 16 8 7 -4 33 44 92 34 30 37 91 107 86 121 101 119 124 91 96 39 3 8 42 59 15 34 39 137 124 86 42 39
-46 -20 -16 -7 14 49 121 36 13 42 -2 -13 -12 41 37 19 20 35 64 100 66 57 64 60 36 37 2 14 7 23 -9 52 50 39 55 66 66 65 -3 -24 -19 -10 -9 -16
-20 -8 -3 -6 -1 17 20 31 70 73 -18 13 29 32 42 44 12 -9 7 15 71 59 51 21 -3 1 -4 33 -5 -4 10 30 56 50 62 69 102 62 86 109 135 195 240 259
-25 -30 -28 -19 -35 -8 -11 3 33 39 -11 -10 42 46 52 45 70 25 26 30 98 67 10 -50 -31 14 6 -6 -37 26 -21 35 46 49 21 -4 73 94 67 71 99 139 191 230
-34 -32 -20 -3 -18 -47 -54 20 21 37 -3 5 42 62 32 50 30 17 -1 22 -12 -53 -40 -26 -10 17 -19 18 -34 -6 39 15 -1 -2 10 64 91 36 30 95 94 87 139 119
-46 -27 -17 -8 -11 -26 -31 16 32 -1 24 -8 30 29 -35 27 23 -3 -21 -8 -40 -44 -18 -26 -37 -19 -32 -6 17 -16 -6 14 19 18 23 35 43 67 59 65 64 24 55 103
-19 -18 -22 -17 -16 -19 -29 -27 14 78 48 2 53 6 -20 17 20 -14 -96 -100 -64 2 -13 -8 -9 -32 -9 16 27 -16 36 5 44 35 20 38 73 45 21 16 -14 74 54 141
16 10 -8 -24 -24 -16 -11 -36 -49 62 20 -47 -22 16 54 -7 -12 -23 -35 -24 -1 -29 -35 -28 -58 -32 -16 12 37 22 33 23 14 -33 22 -10 -16 8 24 13 25 111 127 138
6 8 -5 -21 -33 -27 -1 -41 -10 31 45 -3 26 11 45 37 2 -18 -37 17 -14 -26 -40 -70 -52 -64 -8 -15 1 68 107 58 68 44 64 60 56 64 24 -46 6 128 131 72
2 -1 6 -5 -32 -26 -49 -36 -9 2 24 25 31 33 51 24 -21 7 19 2 -20 -42 -57 -70 -44 -50 -23 -17 14 78 71 81 57 14 -6 -10 -1 -4 -28 -70 -20 40 17 11
13 -9 3 -2 -2 -11 32 -13 -29 -20 17 -28 -8 28 28 10 49 38 25 9 27 -46 -74 -82 -85 -39 -25 -40 -0 30 36 78 81 28 20 13 11 -0 -9 5 46 26 42 74
82 -6 -18 -6 -6 24 89 26 16 11 147 42 -11 -4 -30 52 39 67 26 -16 -32 -43 -35 -70 -46 -15 -24 -40 -34 51 44 54 72 47 23 6 23 5 -4 2 78 68 56 56
68 21 -16 -13 13 53 100 99 19 101 278 115 72 4 8 6 43 42 28 20 13 20 67 74 13 -20 -34 -33 -36 -19 -1 11 42 36 41 22 10 43 5 54 68 49 73 34
40 40 3 69 97 92 75 58 76 125 118 114 54 40 22 26 7 14 33 36 55 53 53 68 53 19 9 -36 -50 -23 -10 -2 20 25 34 60 79 99 62 54 43 134 142 58
69 143 122 119 112 103 179 118 77 76 80 91 34 36 28 18 24 33 38 37 43 45 31 42 71 47 54 -17 -5 5 9 39 83 42 47 64 79 85 68 88 94 122 157 116
222 183 204 163 221 149 93 99 106 87 86 55 38 28 46 62 53 62 52 44 43 32 9 45 32 27 120 147 162 150 181 191 184 158 116 86 44 40 61 76 152 170 146 137
170 213 264 283 126 121 107 111 115 65 68 48 53 56 58 84 78 66 50 56 58 32 53 60 62 74 74 61 84 95 81 118 106 86 75 56 72 113 129 241 311 207 172 204
244 347 241 132 134 100 98 67 102 58 45 74 49 100 116 86 56 55 47 47 39 53 49 47 99 82 78 88 92 101 86 93 101 76 69 67 87 145 155 205 158 150 196 213
346 314 208 121 99 94 112 81 75 137 51 21 45 86 53 86 83 69 58 59 60 56 56 99 118 115 94 80 83 81 70 68 73 77 71 60 79 119 174 176 165 179 203 219
295 250 195 116 103 94 106 141 160 193 137 73 78 72 78 87 97 64 69 71 50 78 135 119 76 39 54 59 57 54 42 37 47 44 53 65 81 119 168 179 180 212 246 269
177 167 144 84 83 109 166 121 139 172 162 139 83 70 54 51 78 53 63 58 109 96 83 60 54 53 40 41 41 51 48 55 62 55 58 78 106 108 143 184 208 231 271 308
156 156 192 107 176 170 156 128 128 137 107 91 79 38 52 70 59 120 166 142 130 101 84 82 67 37 41 54 67 42 54 49 57 68 80 91 92 95 143 191 226 280 326 382

GFSNW_con_3kmhel_105.txt.gz
Helicity
51 51 56 59 66 61 84 115 123 41 60 153 189 128 167 134 50 47 160 94 103 116 182 141 155 139 27 -27 91 135 94 100 97 -35 88 74 30 -6 86 91 73 62 28 66
45 41 47 50 50 47 112 132 99 -4 82 157 113 136 12 35 15 19 91 57 73 64 88 100 137 176 84 46 44 91 90 190 110 18 -54 24 51 47 91 108 46 3 4 32
43 37 54 42 20 34 96 140 160 61 86 86 40 28 33 -14 -28 3 76 102 91 100 116 135 112 131 122 133 104 70 92 165 164 87 41 97 123 197 4 -72 133 19 -43 -84
33 28 26 29 12 21 87 130 147 64 41 23 60 21 45 19 18 23 57 75 63 77 93 113 104 90 79 89 101 100 86 90 66 9 0 -20 63 174 226 42 35 -67 -21 -76
38 35 9 17 4 25 91 121 96 14 -52 -66 14 25 28 0 -8 36 112 72 21 52 25 21 74 87 93 109 137 172 138 126 73 23 32 27 -36 39 133 137 81 -2 64 52
24 6 -13 -2 -7 38 75 60 35 21 -159 -7 22 41 31 16 33 28 27 -17 17 17 43 68 38 39 49 55 74 99 96 97 61 24 15 111 -57 -78 -16 81 91 44 -3 17
-1 -24 -39 -22 -12 43 88 37 53 41 -4 10 72 39 -4 -27 79 65 57 89 88 51 46 52 33 33 25 38 44 74 76 75 48 -29 7 39 19 45 -10 -33 1 44 72 121
-22 -31 -23 -9 8 34 101 47 33 47 33 33 33 35 33 32 27 37 12 52 53 86 46 38 -38 -41 -23 -4 56 45 64 62 28 -22 54 13 35 44 125 73 109 173 158 208
-21 -24 -22 -12 6 16 44 51 50 -22 -3 20 23 -11 12 26 0 14 24 25 30 61 50 36 -13 -8 14 -2 -6 2 39 23 66 29 26 -6 30 65 118 116 129 105 80 140
-18 -18 -19 -40 -28 -8 11 35 14 10 -44 -8 -2 -4 -34 27 -4 23 50 27 -6 -18 11 -11 0 27 -22 20 -16 -13 99 15 -31 28 25 -7 35 -24 48 78 78 31 61 51
-9 -20 -33 -39 -27 -30 -52 -26 -44 -11 -36 -25 -11 -11 7 18 -19 -19 2 -25 -19 -7 6 -26 -18 -7 -13 14 48 28 158 61 -36 28 17 -22 24 33 17 -2 9 -21 -7 -7
-2 -40 -47 -36 -12 -10 -45 -42 -21 -16 -23 17 10 -6 -13 -27 -37 -65 -67 -66 -30 11 15 10 -18 -28 -58 -5 12 3 -8 -19 -16 -52 -29 10 17 49 40 7 -31 -30 34 81
-9 -10 -6 -5 -13 -19 -49 13 28 65 2 -57 -22 -9 -4 -22 -14 -69 -52 -59 -65 -63 -131 -91 13 32 -36 -51 40 -42 12 85 -53 -69 4 23 8 64 29 -11 -37 -58 46 48
-4 -5 5 10 -8 -17 -24 7 22 -1 51 -31 -45 -55 -17 7 -36 -48 -46 -3 -43 -59 -67 -49 -19 -4 -38 -3 24 26 106 97 -4 1 10 -18 -22 -6 11 -19 -49 -43 18 61
-6 -4 7 11 -2 -20 20 51 36 -18 56 5 29 20 28 -37 -39 -41 -48 -64 -69 -60 -58 -75 -52 -45 -46 -7 -12 -6 -23 12 22 12 1 43 92 90 39 -13 28 89 76 85
11 16 2 -3 -4 16 69 13 -78 -17 28 -23 -12 7 26 105 47 18 -14 -3 -49 -68 -78 -85 -88 -64 -24 -43 -31 -7 7 -1 56 23 -5 159 25 8 22 103 117 112 102 27
11 27 -9 -19 8 25 17 41 30 -31 179 -8 -2 28 -3 49 53 -6 -41 -51 -61 -66 -63 -63 -58 -40 -48 -79 -22 137 111 75 55 98 102 38 22 -27 53 124 129 103 38 21
57 39 0 -17 12 73 35 74 44 51 130 30 -4 -5 -20 -13 28 17 19 -7 -34 -47 -41 -54 -29 -51 -75 -42 23 16 26 37 24 47 -13 38 86 78 8 53 91 52 26 13
37 79 7 41 100 108 64 48 27 151 101 -6 17 59 39 30 25 -1 3 17 -27 19 4 -3 -19 -13 -7 -9 -12 28 50 31 35 56 71 49 61 64 64 61 57 69 40 27
134 118 145 138 93 59 138 117 28 24 59 38 23 38 66 39 6 8 52 29 30 -8 25 39 63 36 107 118 84 70 92 102 95 67 77 74 77 51 28 -11 -2 68 86 65
309 244 196 146 84 137 74 86 92 51 37 30 61 53 78 49 59 25 31 43 42 13 6 56 21 53 82 76 61 0 46 108 118 127 132 112 58 24 16 36 151 160 146 102
205 210 198 242 137 100 86 92 98 64 47 26 47 56 62 82 74 69 49 49 61 19 45 44 48 84 60 23 29 23 -12 42 87 93 98 97 94 67 48 102 142 144 118 97
247 244 198 117 119 102 112 92 129 91 22 53 92 117 135 120 87 66 65 52 25 55 50 64 89 63 59 52 47 71 39 52 75 67 67 78 80 103 79 75 101 98 102 127
281 237 164 114 109 106 111 78 103 133 73 80 132 93 62 89 95 75 53 62 82 60 66 90 92 75 47 52 56 50 51 38 35 52 47 55 71 104 127 103 73 93 142 178
206 220 170 132 126 128 128 125 168 210 168 115 95 81 84 87 81 60 87 77 69 111 121 97 58 36 18 30 48 42 35 14 31 36 45 54 67 97 124 125 132 151 185 209
211 169 126 120 135 142 157 133 131 175 167 178 128 67 58 70 78 80 77 118 164 132 101 67 43 37 38 40 30 19 22 33 34 35 59 62 80 96 118 164 184 195 210 229
170 165 236 160 176 172 157 153 146 149 134 133 109 74 62 56 60 128 131 107 110 84 60 51 53 48 47 47 41 48 67 63 68 57 66 63 89 129 167 189 222 256 290 315

GFSNW_con_3kmhel_108.txt.gz
Helicity
71 64 55 51 58 68 101 85 102 60 90 144 149 126 136 75 43 23 52 60 102 201 56 68 134 179 186 133 160 188 153 132 156 66 97 102 80 71 93 117 145 143 53 -48
77 59 40 41 38 80 102 104 77 46 123 132 104 132 53 48 24 25 31 63 73 215 71 44 7 16 30 40 85 138 154 221 173 78 95 125 117 71 54 -6 27 37 3 -38
55 37 30 33 48 46 135 144 135 111 90 113 94 43 34 17 27 24 24 28 41 141 113 92 33 -50 -87 40 98 78 101 85 126 79 90 91 78 54 103 43 -16 46 5 -62
23 18 12 -1 14 36 141 159 129 96 111 66 73 51 50 71 41 41 36 33 36 65 64 59 54 30 -40 34 134 116 105 99 91 94 62 39 3 -2 -40 34 29 -7 -78 2
20 17 20 16 -3 42 132 179 118 64 52 27 4 3 43 60 60 38 17 10 98 126 72 31 47 31 35 8 86 113 165 85 88 -11 10 3 -3 15 6 3 -2 29 2 -57
2 18 17 -12 -9 56 105 83 48 56 24 59 2 10 -11 -0 22 1 -61 22 27 25 26 7 21 -2 -3 17 35 47 43 71 66 6 21 28 -9 5 -12 -13 -10 -12 -35 -6
-6 4 6 -31 -8 73 114 70 37 27 61 30 28 -0 62 34 15 4 42 42 -18 17 43 22 30 27 5 8 20 63 74 68 64 3 -17 14 -2 43 58 34 -7 1 -3 54
-8 -3 -12 -27 -11 49 101 81 51 9 -30 14 35 18 8 -15 7 -14 -15 30 2 50 74 42 5 -5 -12 -14 -0 93 146 142 115 39 16 -10 -28 17 30 102 54 78 49 91
-10 -20 -28 -13 5 42 104 67 90 35 -2 -42 35 53 7 -14 -1 27 39 64 17 42 66 35 -19 -0 -11 14 2 -54 7 79 137 66 14 3 -0 38 15 77 79 104 87 55
-23 -21 -17 -5 12 12 69 17 72 53 8 11 -5 14 -5 -4 -4 -16 -0 76 47 24 31 12 2 41 18 9 4 9 -6 110 112 50 32 4 -28 -11 5 16 27 58 79 63
-19 -32 -27 2 -0 -12 34 -22 -16 -54 -56 -26 -26 -15 -26 5 11 -25 -29 3 7 -26 16 4 10 39 -0 -13 21 78 51 224 159 43 36 48 10 37 21 -22 -34 -63 -19 37
-12 -18 -24 -1 -20 -29 -2 -46 -32 -54 -90 -55 -19 11 -2 -21 -21 -37 -40 -44 -105 -17 -14 4 23 12 -8 -13 -6 -50 12 16 59 -42 -35 12 -7 -15 -8 12 -33 -56 -24 12
-9 -12 2 -35 -40 -53 -47 -46 -18 -50 -98 -88 -49 -5 56 -18 3 -31 -39 -28 -72 -81 -67 -49 -23 6 -24 -20 3 83 173 48 15 -30 -18 18 25 30 -24 -4 -20 -45 -51 -31
-9 -7 -4 -22 -34 -10 -42 -20 9 -12 13 -50 -45 -26 -4 -35 -28 -34 -15 6 -35 -84 -66 -53 -22 -6 -30 8 53 88 71 87 22 -45 -49 25 91 28 158 78 16 -2 55 46
-8 4 -6 -20 -11 6 47 36 -18 13 -30 -9 15 10 77 44 -20 -17 -25 -36 -52 -63 -55 -43 -2 -25 -52 -17 -12 10 -41 -23 58 67 113 182 257 119 124 25 -5 47 45 37
34 20 -3 -30 -27 9 85 -7 -47 -5 21 -12 -31 18 7 13 -34 -20 -35 -26 -34 -43 -47 -37 -22 -38 -56 -58 -4 -14 23 31 15 59 66 104 86 -3 15 98 94 85 69 22
37 14 -1 -19 -24 57 160 74 49 65 168 13 19 21 36 21 -6 -10 -15 -24 -29 -32 -31 -41 -47 -34 -4 -33 33 17 12 48 97 33 -13 34 68 13 54 112 88 53 36 17
31 14 9 -5 -20 98 82 92 43 93 120 20 22 53 11 -28 6 7 -13 -26 -5 -16 -7 -19 -17 -26 -35 -12 -3 28 77 69 55 38 34 29 71 26 16 27 16 22 9 -10
36 27 -1 32 36 128 79 77 59 94 55 5 57 74 20 -23 22 41 3 -15 -11 -12 2 -0 -19 -13 -6 50 31 34 51 45 51 40 88 90 77 66 16 -7 33 42 29 13
14 158 175 145 93 62 156 115 30 5 5 24 31 45 39 9 41 18 -3 -18 -12 -15 -6 44 -9 10 117 67 43 54 32 23 25 8 29 55 51 38 12 20 56 65 40 21
352 294 270 129 72 124 99 44 14 8 5 -0 102 139 71 -2 25 42 -1 -11 -20 -17 -8 9 -6 50 85 57 19 -10 -31 -19 24 48 46 45 42 40 40 45 63 67 60 49
263 258 222 143 105 107 64 22 25 -12 19 1 46 59 32 57 61 40 31 9 38 1 40 25 24 73 83 49 18 -13 -7 -9 30 43 48 53 58 50 19 24 50 62 64 73
344 346 260 157 128 102 81 48 68 53 11 45 54 51 58 76 68 52 40 56 37 58 63 44 61 61 32 29 6 28 36 29 31 34 30 24 34 56 57 43 65 94 96 73
365 294 183 128 132 105 64 54 43 76 59 71 79 113 74 85 89 66 55 45 68 65 58 48 53 50 36 13 27 12 19 41 24 12 26 41 56 61 62 75 73 88 118 127
229 190 128 102 139 120 97 87 110 156 118 129 125 100 77 72 74 66 92 76 63 84 72 82 49 23 17 14 19 12 17 6 -1 -4 5 42 60 78 92 97 107 120 140 159
155 170 150 115 148 122 117 115 120 202 204 159 128 64 58 55 68 73 83 95 122 82 85 69 45 31 21 23 27 29 23 4 -20 7 35 69 80 94 98 143 167 180 179 189
193 157 195 159 151 149 128 134 140 142 136 131 93 65 61 70 76 131 152 144 120 111 79 57 47 46 32 36 39 43 32 17 17 43 75 68 82 113 138 161 190 244 260 272

GFSNW_con_3kmhel_111.txt.gz
Helicity
83 85 71 86 92 112 109 100 154 76 110 135 113 108 79 61 71 61 73 78 70 41 112 98 124 116 107 43 91 178 215 216 186 105 126 72 45 40 -1 83 219 238 163 84
75 82 68 62 70 92 102 105 58 107 120 149 117 85 69 61 65 46 69 80 56 60 65 157 131 63 73 83 54 77 88 148 162 151 191 263 182 158 82 -37 -43 -6 213 97
76 66 55 45 51 85 109 99 112 91 95 110 118 120 90 51 26 22 45 64 25 45 39 66 93 86 65 17 20 46 52 57 137 142 156 112 174 174 147 94 46 8 16 31
64 59 34 30 26 62 133 130 105 106 128 112 114 115 80 67 63 53 28 49 62 59 -13 79 76 18 17 9 66 100 88 145 101 113 35 62 71 45 -4 28 39 35 8 -0
66 57 30 24 34 69 151 167 141 104 91 66 70 63 19 -10 8 45 68 40 38 37 43 77 53 18 -31 -40 51 75 147 72 65 44 43 50 33 16 26 21 26 51 34 12
52 30 12 11 35 103 132 100 88 101 45 73 66 47 -10 9 7 16 23 20 7 90 69 37 24 13 12 20 41 57 70 102 132 94 128 108 27 18 9 23 28 22 11 11
40 15 4 13 11 73 104 74 84 82 45 49 50 29 31 15 54 34 62 12 -3 -9 60 6 16 7 -2 22 33 100 104 119 108 63 48 53 84 131 56 53 48 66 31 39
24 1 -10 16 -3 54 99 85 96 56 -4 -21 7 41 41 52 32 14 6 -12 -6 -0 12 21 1 8 9 13 -11 59 122 119 121 97 73 39 -12 -7 49 69 22 43 12 130
16 -2 -6 -12 -8 25 107 83 103 56 -5 -20 -39 34 68 10 17 37 26 19 18 16 32 13 11 -4 -5 -1 22 6 50 13 166 161 91 22 -14 50 16 -16 -8 78 83 91
20 -8 -24 -27 -1 46 90 50 94 47 -2 22 -3 -6 26 18 5 16 24 35 25 27 18 9 1 -1 -6 23 25 8 7 48 201 179 84 54 -4 -38 -27 21 7 126 67 71
21 4 -32 -19 11 55 90 44 59 51 -36 -54 -30 14 24 -0 7 25 13 19 7 22 6 -13 -3 30 5 20 45 35 -17 25 142 219 64 90 31 49 30 21 -17 -39 -11 22
13 10 -16 -35 16 24 57 43 40 53 -22 -49 -33 14 15 -24 -10 -26 -0 2 -7 -16 -38 -19 -3 23 15 -1 -18 52 130 120 43 80 38 12 5 -9 -103 27 48 -4 -12 -8
18 9 -10 -33 -20 7 58 30 53 44 -0 -54 -57 3 60 22 60 41 14 10 -34 -68 -55 -42 15 44 -5 -6 21 139 160 124 13 14 30 20 22 23 -25 -31 -32 -11 6 42
2 8 -1 -19 -15 8 28 24 33 60 31 -66 -59 -6 1 14 -9 -26 10 69 -2 -14 -40 -23 7 12 -32 -23 24 105 8 71 221 6 -30 53 47 125 91 53 -36 7 69 80
-1 -21 -16 -19 -27 -15 24 42 12 61 53 12 2 38 93 28 -23 4 18 18 -5 -39 -20 3 -6 -4 -22 -32 -27 -17 -50 -15 140 197 124 204 316 274 92 44 60 65 63 50
-0 -9 -17 -22 -39 -25 33 64 -9 36 64 31 -2 8 43 -4 -24 -25 -9 4 -12 -2 -3 -9 -10 -10 -36 -15 24 -11 -20 6 40 44 -13 59 31 28 27 40 48 61 55 24
-12 -15 -30 -41 -61 -20 50 69 40 97 112 39 19 16 20 7 -15 -12 -13 -10 -6 6 26 21 21 -10 -8 14 47 17 18 51 62 82 13 -2 43 7 10 15 67 49 23 13
-20 -1 -22 -24 -58 -62 86 108 61 120 131 40 19 26 27 -10 19 16 -3 6 39 28 11 20 28 3 16 4 27 28 42 49 67 98 81 62 63 45 21 12 17 32 16 -0
45 24 -2 29 50 28 135 88 43 75 70 6 11 34 33 -8 30 6 24 -6 5 -6 15 31 1 -3 2 62 46 29 7 8 27 36 32 75 94 108 91 33 10 -1 -11 -4
29 55 103 128 98 27 222 76 49 39 40 13 6 38 44 -1 18 12 22 8 -10 -6 -8 -4 -4 38 142 82 46 14 12 -0 -1 1 17 33 54 57 55 25 2 8 -20 -14
149 134 191 163 70 158 117 80 41 61 16 -15 18 99 84 6 21 25 14 27 5 -4 -16 -18 -11 49 89 55 40 25 1 -17 2 19 21 22 21 23 14 -2 -14 8 21 19
147 240 221 199 115 115 128 82 52 17 -4 3 29 30 6 20 18 25 9 -6 3 -23 -0 -8 23 54 58 37 29 -0 -12 2 13 19 10 7 10 22 22 3 18 35 43 56
350 371 293 202 154 110 103 57 52 23 21 30 31 20 15 28 49 62 48 39 12 26 31 37 61 44 18 1 7 20 17 20 23 27 23 15 14 35 49 20 28 40 55 69
332 348 257 164 109 53 27 56 32 52 54 24 60 69 45 53 68 63 56 42 44 26 36 52 44 47 42 13 3 5 18 23 16 33 34 23 21 21 39 59 47 56 72 93
325 221 156 140 112 96 91 53 59 104 83 103 113 73 60 78 74 53 85 63 44 54 32 37 35 30 17 7 7 1 4 7 9 -1 2 22 28 33 44 66 74 87 101 118
275 207 132 174 128 119 83 100 87 115 127 138 123 58 64 66 65 54 63 70 57 58 64 55 43 29 24 15 27 13 -11 -17 -15 -1 -5 9 25 48 56 101 121 125 140 152
183 178 145 138 171 142 112 122 119 156 132 127 94 57 64 61 72 82 91 104 107 92 90 73 52 30 19 3 15 5 -12 -13 -8 4 5 5 30 69 84 112 119 162 182 209

GFSNW_con_3kmhel_114.txt.gz
Helicity
61 72 72 82 98 109 112 109 164 81 64 119 106 114 105 100 101 93 79 75 55 50 33 -10 1 23 87 47 51 126 186 192 182 172 179 99 146 154 166 167 156 183 165 105
51 55 74 98 112 118 114 134 101 75 89 153 135 116 104 90 82 86 90 78 64 65 69 48 17 40 56 62 56 72 100 207 271 183 132 175 194 200 176 175 197 135 142 114
39 60 76 97 105 112 114 129 166 97 95 102 142 148 109 83 69 73 75 64 54 49 47 53 77 67 85 64 79 62 46 105 160 251 197 90 157 98 80 86 99 69 93 97
48 66 69 97 120 113 120 123 134 115 165 163 140 137 97 68 101 42 48 45 39 43 25 39 96 45 91 49 28 38 20 17 58 59 37 75 108 47 24 70 52 69 72 74
56 69 82 104 133 147 140 157 155 131 113 115 123 109 82 33 14 22 18 25 18 30 27 51 38 101 64 20 30 45 45 15 50 43 33 43 75 77 75 88 87 92 50 26
50 56 74 96 129 164 138 115 101 146 87 126 110 92 51 13 -14 10 17 22 43 24 30 93 30 32 17 46 39 23 60 58 41 -6 44 57 83 59 88 94 83 79 82 83
43 50 62 72 89 114 127 97 104 135 92 99 84 51 21 38 36 43 45 25 25 2 -9 19 -16 8 36 83 105 82 43 74 86 71 89 97 72 121 104 43 57 111 103 75
42 49 57 61 61 99 100 84 113 116 74 52 -3 -6 -7 84 51 21 6 3 -7 8 -6 3 23 -0 2 -13 20 73 132 130 110 107 92 78 56 58 47 63 1 34 40 47
42 54 70 56 46 74 96 79 105 99 74 27 -21 -22 23 33 9 20 5 9 -4 7 -9 -14 -47 -37 -14 -10 13 5 42 35 112 116 49 20 12 17 102 44 -83 1 130 75
36 62 66 58 33 44 99 62 105 110 63 -6 -24 7 15 15 6 11 21 6 2 1 -2 -14 -23 11 21 38 34 8 5 97 219 185 115 49 61 18 -41 -33 -54 -44 184 102
43 71 61 47 27 40 121 60 67 104 70 10 -5 -27 -15 26 23 13 6 7 -0 8 -2 -5 -8 -6 -1 -7 29 41 54 37 50 82 145 18 23 50 13 -10 5 32 58 -11
52 73 67 64 41 64 92 72 64 72 81 -1 -2 -16 13 61 68 -18 14 -12 -12 -24 -7 -5 -1 -16 14 37 71 152 149 129 54 42 31 9 17 -5 19 -26 -5 44 37 18
56 70 60 57 49 37 49 88 106 92 62 -1 -10 28 68 47 87 117 31 34 4 8 -40 -31 -22 14 13 28 71 99 107 168 53 34 37 19 4 7 4 -89 52 14 3 32
56 64 54 42 30 11 27 70 84 97 74 -22 -27 -1 -6 28 80 86 90 45 38 5 -15 -41 -12 9 -7 46 86 104 16 71 232 41 124 36 15 85 67 17 18 81 47 53
45 56 45 39 27 10 28 49 56 78 70 6 -27 4 98 43 53 48 26 26 19 7 -8 16 -1 8 -6 1 13 -11 -34 20 129 164 185 177 116 75 82 77 62 33 50 55
57 40 16 -2 7 6 46 54 51 109 135 64 -1 30 47 -5 -37 -27 11 67 27 18 -7 19 13 28 -23 -17 9 -3 -48 -10 -24 24 82 -10 -17 23 19 20 96 104 44 65
42 31 19 12 9 44 74 57 31 91 150 75 18 15 1 -2 -26 19 33 8 15 19 33 69 59 39 39 17 61 29 14 20 4 37 70 33 38 43 5 -8 -13 16 25 12
20 19 15 10 4 3 -21 -34 55 92 83 77 13 19 20 -14 3 27 -0 16 41 51 54 46 43 27 21 12 74 33 8 -23 11 50 27 20 27 76 77 28 9 19 8 16
24 22 23 38 45 34 -38 30 63 88 72 36 7 27 40 7 26 31 25 5 12 -10 24 25 15 26 11 68 42 38 7 -3 29 37 15 38 57 64 69 67 46 4 7 15
16 45 82 79 76 13 43 83 85 65 73 40 22 24 20 6 4 12 -2 -11 5 -12 -8 -5 2 52 121 68 21 23 28 7 -11 -9 14 28 43 41 44 36 20 15 32 45
51 59 94 101 67 130 56 132 80 66 5 -0 78 114 69 -4 1 7 8 59 11 -12 -8 -8 -12 35 81 50 34 10 -11 -13 10 15 17 13 15 17 12 13 12 6 18 39
78 143 162 150 124 111 117 97 87 40 12 18 59 35 2 5 2 -5 6 18 23 -13 7 -2 7 53 50 29 21 2 4 16 20 20 20 22 17 17 12 15 12 7 25 42
199 184 169 150 151 103 116 127 145 90 14 33 44 25 4 7 22 17 1 16 -9 26 20 34 48 42 34 17 17 20 27 32 28 26 29 38 36 29 34 27 25 21 30 39
220 266 175 128 23 46 94 102 118 81 28 20 54 46 30 31 51 38 49 48 50 31 35 49 53 51 44 44 32 31 30 30 20 28 26 25 24 25 29 35 34 42 50 55
276 249 128 70 76 55 66 76 89 77 66 69 59 59 36 52 59 50 61 42 45 31 34 29 40 39 29 20 26 18 10 15 17 12 4 13 21 27 31 49 52 55 69 78
288 210 140 152 152 96 78 77 62 76 88 91 85 57 54 42 59 60 41 40 33 45 60 62 56 45 38 22 14 -9 -18 -7 -17 -21 -21 6 36 38 27 60 85 84 92 111
191 168 185 159 179 155 98 96 95 121 112 101 103 72 53 58 51 54 77 67 85 98 89 59 40 30 18 -4 -10 -0 -4 -16 -25 -33 -24 -7 8 45 60 65 77 111 128 148

GFSNW_con_3kmhel_117.txt.gz
Helicity
37 49 52 37 20 12 45 28 63 63 41 115 96 125 108 96 90 105 98 77 62 44 45 29 12 8 12 79 33 98 50 64 112 219 187 86 111 116 174 165 181 213 190 129
35 49 47 37 30 47 33 47 57 49 62 122 114 106 92 81 90 90 97 111 86 83 71 55 13 20 -26 45 91 96 97 106 130 123 105 215 283 240 223 176 169 168 142 96
26 36 45 48 54 64 55 65 98 92 95 89 138 127 91 95 79 72 62 56 42 46 52 39 41 33 26 46 55 111 27 69 90 143 190 183 240 203 171 156 172 154 132 111
41 50 54 55 59 76 61 68 106 108 156 173 155 126 95 80 91 46 38 17 20 21 34 18 12 1 6 -1 2 14 28 37 63 66 67 74 163 243 137 144 92 108 72 75
34 58 59 56 70 80 75 97 126 103 142 150 145 140 96 71 66 22 24 78 -3 8 -6 51 38 31 6 18 41 40 43 27 46 79 44 48 65 45 57 66 38 27 -2 9
44 56 64 61 82 87 83 95 102 123 127 157 156 136 94 66 24 7 48 22 25 17 31 36 88 48 11 -4 -10 -16 28 33 38 93 63 37 87 41 13 16 30 47 21 -13
43 49 54 63 70 72 90 102 124 144 145 132 123 93 29 -12 -12 18 18 -8 8 19 34 46 56 31 61 46 69 80 43 18 31 27 40 134 73 78 66 42 32 41 24 4
50 36 53 55 47 74 82 104 129 139 122 93 80 21 27 -12 3 10 12 -10 2 8 -12 -8 -0 -21 -21 -5 19 -0 53 23 33 19 12 14 9 5 34 75 87 78 76 102
65 46 63 50 43 87 100 104 105 118 114 82 29 16 3 -12 -9 15 7 20 -2 -26 -36 -31 -28 -36 -9 12 -4 -47 20 65 83 86 83 69 16 36 64 61 9 73 17 -15
39 46 67 49 51 92 103 92 79 108 87 34 19 -6 1 -14 7 9 30 46 1 -26 -9 -19 -20 -8 17 51 37 41 97 79 125 177 130 56 5 5 4 1 10 -32 -28 117
51 56 62 53 46 79 105 86 58 118 76 33 28 10 4 -8 -2 19 -6 -2 -7 -20 -2 -1 6 10 15 19 41 115 45 61 34 51 49 22 27 14 16 -4 -86 -22 94 157
62 57 60 56 48 69 116 107 51 68 66 22 21 -2 9 34 51 39 -9 -6 9 -11 -12 -22 12 35 -8 48 141 109 114 157 78 40 31 20 -7 19 1 -30 -58 73 65 12
57 51 52 64 49 72 97 99 93 95 78 53 41 18 42 48 70 72 16 3 -24 -20 -20 -14 -13 18 30 64 97 136 163 159 166 67 30 25 7 16 8 2 40 -0 24 38
53 44 51 65 54 41 67 102 98 105 95 33 8 -17 -3 35 56 68 101 34 39 36 -4 -26 9 30 1 64 97 109 38 121 179 232 86 96 -8 29 53 67 87 64 41 59
43 44 48 52 40 33 62 66 68 48 79 9 -41 -60 81 2 78 59 77 75 24 -2 -4 2 22 15 -12 29 10 25 -59 17 53 41 166 21 60 57 81 76 86 70 73 80
49 27 44 49 43 67 120 70 49 47 90 32 -8 16 85 43 50 69 98 54 9 6 10 6 17 16 -27 -15 24 44 -4 -17 -50 7 42 -34 -4 4 31 -5 -7 38 103 77
46 50 45 28 20 119 84 55 34 45 94 45 15 27 6 9 6 15 34 -2 10 5 26 69 72 25 -15 6 31 34 -7 -1 -32 -28 2 -0 10 -12 39 19 11 10 11 22
38 29 34 24 30 70 20 -63 15 37 37 38 15 -3 28 -4 5 12 2 31 40 12 55 72 48 18 -12 11 39 24 13 -10 -17 -3 5 -0 9 33 54 46 24 25 37 33
30 34 30 77 95 73 -11 -3 7 47 54 30 17 32 43 24 13 39 23 26 11 -2 20 29 -2 -1 -15 59 40 27 -9 -13 32 34 25 41 50 49 56 54 50 31 29 32
17 94 105 94 46 14 19 18 21 39 86 106 50 54 34 10 26 31 23 -5 -18 -5 -11 17 -1 49 139 86 41 5 -3 -1 -6 -13 29 42 36 29 20 17 8 -1 3 21
113 103 104 89 40 89 38 63 96 99 53 37 64 91 72 11 17 15 1 7 -2 -8 -5 -7 10 34 64 49 37 22 5 9 9 8 16 24 24 28 22 16 14 12 10 20
61 74 124 70 70 94 114 122 126 62 15 6 36 41 22 19 24 -7 -20 -1 5 -5 2 -18 6 37 45 40 27 21 26 34 39 38 29 27 33 34 23 14 10 10 13 6
85 62 69 99 93 84 86 122 133 109 44 16 59 55 22 14 7 8 2 3 -8 5 2 16 55 62 53 44 29 31 39 40 34 33 34 36 34 37 39 31 29 25 36 36
41 114 144 91 52 3 76 121 127 105 24 36 50 42 25 13 10 4 -0 17 25 17 24 47 62 56 50 41 48 58 53 39 23 25 33 38 31 22 24 31 36 37 50 54
71 122 58 19 34 21 15 57 107 104 84 61 29 43 30 35 27 23 39 20 14 19 42 33 45 50 44 42 40 39 39 34 27 27 31 19 17 29 44 58 60 62 63 73
47 129 54 80 87 75 88 92 85 85 84 107 80 42 33 33 41 47 41 44 28 43 46 57 60 61 48 36 31 15 7 4 5 13 14 10 18 23 28 62 103 98 89 91
15 78 171 130 137 148 160 122 79 98 96 102 76 46 36 53 40 41 66 58 66 72 75 73 62 55 49 42 30 14 1 -1 -2 -2 8 11 14 25 51 92 103 111 114 118

GFSNW_con_3kmhel_123.txt.gz
Helicity
5 8 12 24 24 18 2 10 19 -9 -32 -4 -12 39 64 76 109 105 110 87 66 88 106 103 90 46 17 46 58 25 20 49 51 39 48 39 -31 2 6 47 6 68 84 75
10 2 15 25 16 12 23 23 21 2 -19 22 28 50 73 90 99 123 116 88 85 74 55 63 14 0 22 21 16 15 51 44 32 -9 19 112 31 49 20 -1 -22 96 31 51
11 20 29 22 16 19 35 28 40 24 24 31 60 46 84 102 72 68 83 67 17 -4 8 -10 26 -18 9 27 14 29 22 22 22 49 49 -7 74 24 66 105 -1 -15 36 109
19 25 25 21 8 13 30 35 35 21 30 35 54 39 78 96 97 87 48 23 31 11 15 -22 -19 -4 37 31 39 13 11 -3 16 36 51 40 7 21 -21 47 107 105 101 53
32 22 20 4 -5 -6 23 39 29 25 67 54 29 46 87 78 98 86 63 11 1 -12 -7 16 -13 30 35 12 68 44 13 19 -3 -6 0 28 41 26 -4 11 44 97 105 112
32 24 14 -9 -18 1 21 13 22 34 47 40 2 89 108 86 84 38 -14 8 4 -8 -1 11 35 25 84 56 20 16 12 -3 -3 4 25 26 36 70 21 5 -8 21 103 75
25 20 12 -6 -27 -1 -8 29 41 34 29 15 49 84 66 40 45 14 -33 -1 -7 -1 29 50 38 94 87 47 31 21 28 20 3 -2 8 -32 -11 29 57 56 42 62 42 33
30 20 11 -11 -29 -10 13 14 26 21 42 59 65 51 29 32 6 6 -19 -3 -4 11 34 8 18 15 -9 14 5 -7 -9 -4 -5 5 -26 -2 27 44 101 106 73 42 57 91
35 19 0 -3 -6 -31 -14 24 19 38 46 59 72 49 27 16 14 8 9 -4 13 -9 2 10 33 2 8 -8 -2 13 59 85 16 68 2 5 31 -24 -25 34 53 121 147 122
26 15 15 4 -2 -27 -23 18 20 47 49 62 35 34 36 -8 -20 -27 -17 -30 -2 -16 -13 8 7 14 -12 -6 38 108 144 56 106 74 68 39 81 49 12 -4 21 1 -23 -46
25 20 14 15 -1 -7 -13 25 15 45 42 41 29 0 -13 -18 -20 -29 -42 -7 18 -24 -6 -9 -13 -1 -19 17 101 100 87 71 57 20 30 24 -8 39 -25 6 15 -87 -42 -62
33 24 6 21 10 8 -3 29 20 21 33 32 -2 -14 -46 -48 -49 -39 -4 -7 -21 -51 -22 -14 -13 4 -14 21 84 9 47 67 148 55 -7 5 -42 -29 4 10 20 -7 -8 22
55 14 -10 21 15 14 -6 39 36 33 42 19 24 14 18 -12 -11 -4 -7 29 19 -43 -7 -13 -18 -2 -20 46 54 34 33 33 77 105 55 86 44 64 20 15 34 32 25 14
-8 -1 -4 29 20 19 5 32 19 17 28 58 63 23 -2 -6 -4 13 15 -6 21 -8 -8 -10 -13 -15 -17 18 50 68 2 -15 42 59 51 83 59 55 43 40 24 28 34 60
26 11 41 33 24 23 9 17 15 7 16 66 33 -20 -8 3 20 20 17 22 -15 -25 -17 -12 -11 -24 -19 -12 17 6 -29 -41 -7 19 16 42 71 69 23 21 28 17 7 21
35 46 44 40 32 44 68 43 20 15 27 34 76 68 10 15 16 41 38 30 4 -11 19 -1 -13 -19 -27 -17 -21 32 43 -27 -37 10 28 14 -3 -4 -8 2 4 4 19 28
47 50 40 35 42 27 73 73 47 9 27 35 51 47 41 27 34 32 30 11 18 20 23 21 3 -14 -28 -5 5 29 1 -31 -38 -5 -3 -18 5 3 11 14 10 16 32 22
40 56 46 47 24 57 47 31 20 7 30 32 44 39 15 22 18 23 29 16 34 11 20 5 -17 -16 -29 -23 42 33 10 -25 -29 -4 -23 -10 -2 -5 2 -2 4 7 15 8
56 58 61 89 102 82 64 30 7 21 51 46 43 48 36 5 -14 7 16 21 9 -12 -3 -5 -20 -22 -26 43 57 42 5 -1 0 0 -4 7 9 6 9 10 15 12 10 7
74 180 204 171 92 67 57 46 66 59 56 56 30 6 4 5 10 -2 11 -9 1 -2 -7 -2 -16 10 100 105 82 38 24 21 23 23 22 13 13 17 20 22 24 19 18 12
224 234 181 90 51 59 68 97 100 90 44 20 25 20 5 42 46 33 23 13 1 5 5 -3 -14 25 62 50 46 47 52 46 41 34 33 27 22 26 23 21 20 19 16 19
177 145 101 73 68 117 127 119 104 84 36 43 33 29 33 66 61 54 32 15 16 19 -4 5 8 44 59 39 46 56 57 46 40 40 40 38 33 30 23 26 29 25 16 26
165 122 124 151 100 138 149 126 171 87 35 34 46 48 60 64 49 64 48 21 10 26 10 17 54 33 56 53 49 44 50 56 52 57 58 47 43 44 46 47 53 46 52 57
170 182 161 153 115 153 107 94 62 28 25 16 29 59 48 55 64 57 22 12 14 -18 -24 17 49 54 50 48 42 35 56 53 46 48 50 53 52 52 51 57 48 57 67 72
160 114 117 107 70 91 118 86 65 68 75 71 63 52 42 55 45 34 35 8 -12 -9 17 37 56 43 44 57 62 70 71 58 52 54 50 46 39 28 24 35 57 78 95 109
85 66 91 103 103 27 56 71 93 62 65 54 72 79 42 32 48 28 16 27 2 22 53 63 46 66 70 77 79 72 64 52 44 44 34 36 32 33 26 33 75 89 114 133
57 88 49 48 100 88 79 69 43 54 73 73 84 72 47 48 37 38 55 59 83 70 80 94 122 81 88 94 84 82 69 62 53 39 39 40 38 1 19 90 98 91 96 106

GFSNW_con_3kmhel_129.txt.gz
Helicity
114 6 24 59 80 99 116 122 96 46 47 77 58 64 66 58 75 30 25 41 60 109 103 96 116 178 233 74 35 27 89 49 28 -76 -23 12 -0 44 10 38 78 86 21 -8
-3 22 42 79 94 111 130 119 75 74 65 83 61 44 52 68 44 86 70 71 95 84 104 132 117 96 38 24 27 34 36 59 -15 -69 -21 59 82 55 -51 -45 -25 52 94 64
-27 29 70 76 97 102 141 137 118 100 63 65 38 45 43 39 41 53 52 45 55 123 101 108 72 42 32 30 20 52 73 76 36 16 20 48 1 105 97 -22 23 34 18 5
-0 26 68 87 93 124 143 138 100 68 60 61 51 39 36 32 33 37 31 90 155 108 105 44 42 -33 -5 30 -6 49 45 -8 3 -1 -1 12 23 59 9 -3 13 67 46 -12
5 48 54 85 110 148 107 99 118 97 73 62 66 44 -7 12 89 53 84 97 81 74 57 28 -0 10 51 32 11 -12 49 46 21 8 46 39 6 15 39 62 60 -30 -26 -51
41 40 74 93 112 142 133 133 167 95 65 35 34 6 46 98 64 24 45 73 69 25 -18 -7 45 95 207 141 42 -37 73 51 8 15 2 13 -2 43 39 103 21 34 -8 63
34 48 85 98 119 132 183 243 156 79 42 12 22 76 88 67 45 51 40 3 -6 -10 -21 38 90 -10 31 1 7 25 28 8 -10 20 -5 -4 30 56 48 101 139 181 87 124
32 60 78 111 120 170 189 249 138 108 45 43 55 69 53 28 7 38 8 -30 -2 -1 33 10 2 8 7 -24 38 -29 -39 -14 -1 7 20 49 -20 67 45 98 44 126 54 92
51 69 98 117 130 163 178 163 115 129 89 67 27 53 24 27 44 16 16 9 -10 20 29 6 -10 -1 -2 1 -3 27 4 29 -21 1 7 6 26 182 24 8 33 65 33 52
57 80 113 123 117 159 142 153 135 117 82 64 85 52 33 45 64 66 54 -35 -19 2 -3 8 6 4 -15 -1 20 81 56 21 49 18 -4 23 50 150 112 24 -2 73 60 36
74 89 117 118 117 131 156 143 136 118 85 66 77 61 81 66 71 89 30 9 -16 2 -17 2 5 12 -21 -32 -6 -11 -18 35 67 18 -11 8 -18 -30 -0 6 -7 27 52 20
93 88 109 126 110 121 137 113 111 132 89 25 27 23 60 112 60 80 5 26 3 -2 -22 -1 5 8 1 -14 -23 -1 -16 -0 6 9 -10 -26 -8 -73 -21 24 50 21 10 -2
113 104 105 109 110 89 91 85 92 72 49 28 17 11 36 16 7 -14 85 80 63 35 27 5 -9 2 -3 -6 -4 -24 29 34 22 9 -40 -38 -57 -46 -19 20 13 13 -9 -8
125 107 89 100 95 83 95 109 85 69 53 59 25 30 41 9 4 2 20 44 56 62 49 17 2 8 -0 -13 11 -24 63 39 17 4 -7 -16 -53 -29 -1 21 -2 -15 -15 2
82 83 83 78 89 83 82 73 70 73 51 40 11 13 12 76 36 23 42 43 59 68 53 45 13 8 19 7 7 24 26 43 -32 -17 -15 7 1 3 -20 -14 -10 1 13 14
33 53 59 65 87 88 88 78 43 42 37 36 43 14 11 54 73 52 43 27 49 75 72 23 15 9 9 8 -1 46 43 41 45 17 35 -25 30 -22 -13 -12 -0 29 36 34
4 38 57 59 73 119 102 79 50 37 33 38 37 20 2 46 39 22 44 29 41 59 44 27 40 13 2 5 18 71 97 73 51 10 -17 10 17 7 31 31 38 60 46 37
5 26 51 94 98 100 116 60 12 9 44 33 43 22 6 27 26 26 22 57 57 37 34 49 34 -1 3 -0 60 132 92 70 97 21 94 68 67 60 54 47 37 41 36 22
33 68 118 170 166 130 86 25 3 34 57 47 46 42 39 26 24 49 138 47 49 34 25 13 1 -12 -4 27 114 139 95 75 33 82 96 83 70 59 56 44 36 29 27 26
96 168 180 155 106 47 40 73 58 64 62 46 36 29 46 41 36 35 55 39 15 5 26 7 3 17 119 139 118 137 119 95 76 73 71 58 54 46 45 52 49 42 34 41
183 162 162 106 6 85 94 83 69 59 38 31 35 35 41 30 70 56 23 22 13 4 14 22 2 26 71 63 104 135 115 100 105 107 101 86 75 63 55 54 55 44 46 53
119 115 93 100 111 109 91 71 75 51 44 43 53 22 43 52 79 78 69 46 49 -1 39 -9 11 29 45 60 137 138 138 113 99 93 85 78 73 61 51 55 43 45 55 57
107 127 144 116 106 99 95 78 79 68 45 59 64 62 62 68 71 101 94 101 64 51 48 33 39 55 73 101 108 107 91 89 96 97 82 76 62 58 55 46 29 25 41 57
194 185 163 111 88 92 75 42 45 21 60 99 133 114 79 71 81 89 93 70 81 77 51 90 88 98 108 128 139 129 73 53 62 90 72 63 41 27 23 22 35 55 57 73
218 168 143 118 131 89 49 45 73 79 67 134 101 63 59 59 89 60 57 58 37 40 74 84 118 143 148 138 132 106 86 68 58 61 38 24 17 63 75 62 44 37 51 84
154 165 174 142 125 114 107 74 82 115 71 85 84 71 46 50 58 79 29 32 34 62 89 108 155 175 159 124 98 83 74 66 65 47 45 57 63 49 71 67 58 52 52 71
84 102 95 83 56 65 84 90 71 95 63 62 78 56 34 70 59 46 86 80 76 116 139 167 147 128 104 96 73 57 79 89 76 54 52 53 36 64 109 112 68 53 21 25

GFSNW_con_3kmhel_132.txt.gz
Helicity
383 271 194 215 54 93 138 160 246 77 86 163 132 127 117 82 50 56 73 110 150 126 132 104 109 135 105 62 39 47 30 60 107 61 24 44 84 78 65 69 29 29 77 -3
266 277 250 82 82 122 148 147 171 105 96 145 153 119 140 111 86 113 91 108 107 96 97 89 82 101 42 59 23 45 27 56 36 10 16 41 5 78 21 37 26 19 40 156
293 240 81 67 108 148 203 181 222 185 107 85 101 128 94 112 92 86 75 96 114 100 86 101 65 57 19 5 35 44 49 36 33 48 37 41 42 12 49 21 11 70 74 66
189 69 13 73 109 142 180 214 155 105 71 87 95 103 111 92 86 75 100 108 104 80 66 71 64 21 37 56 15 28 29 70 58 43 18 7 -5 -16 14 44 4 -10 44 20
49 31 45 71 122 132 144 102 121 138 158 115 158 111 63 60 90 65 80 102 79 71 62 67 69 36 34 19 13 16 35 35 84 27 36 -20 1 60 72 10 60 119 78 96
-29 44 93 116 105 130 145 140 215 136 155 124 87 60 90 85 86 45 55 67 74 38 31 11 43 41 73 44 5 34 28 64 27 61 17 -4 41 52 34 8 133 82 93 72
45 54 55 119 135 132 137 193 188 135 127 85 79 86 78 62 54 69 32 31 45 -3 -14 -5 -17 10 -17 -3 -14 49 39 40 42 21 -2 18 10 16 19 66 39 122 111 85
19 81 104 133 122 170 194 221 171 124 132 84 80 73 61 53 42 41 47 9 -25 -21 -6 6 12 -3 2 5 18 24 42 -15 -21 17 3 -22 -14 65 18 24 42 86 99 97
51 69 119 127 157 186 167 234 165 205 160 99 51 66 40 57 33 18 42 13 -4 -6 -2 -0 13 16 7 -2 -9 -0 -18 -5 -39 -42 -29 20 30 133 86 46 34 70 85 77
67 91 117 125 161 163 122 202 208 190 140 226 82 48 39 45 41 61 52 29 -1 -8 -10 -3 1 1 2 4 24 15 35 -12 13 27 -18 6 31 98 59 9 -1 46 34 37
74 100 121 125 137 139 127 195 236 122 97 187 133 78 72 65 46 70 26 30 16 14 -20 -15 -3 8 3 17 13 12 11 14 -2 33 23 9 -0 -9 -40 8 3 18 18 -17
90 86 126 126 135 133 111 169 197 143 84 83 98 62 54 61 48 85 66 46 23 16 -3 -17 -5 3 14 12 13 10 -0 -32 -24 21 24 -35 -12 -38 -20 -7 10 -1 7 1
95 99 131 131 131 138 108 143 145 116 104 90 49 27 20 20 6 23 79 43 25 22 18 -0 -10 -9 18 16 -11 -24 -0 36 6 -24 -40 -36 -7 -31 -30 -3 29 39 -17 -8
102 108 127 134 111 130 125 178 160 106 86 52 53 42 26 20 28 30 54 71 61 52 35 11 4 7 21 15 -12 -20 -3 54 12 -14 -9 1 -38 -49 -13 2 -24 7 7 17
111 108 111 117 100 116 128 135 155 112 41 34 22 40 13 27 46 53 71 85 68 48 31 36 19 29 31 29 19 7 43 47 -23 -34 -25 -11 -17 5 6 7 6 37 27 25
113 108 98 99 108 111 118 117 107 97 82 54 40 18 -2 36 54 42 31 34 53 60 59 34 28 30 37 44 23 26 47 45 47 25 36 16 20 60 62 51 41 62 59 53
88 82 89 100 133 116 92 61 71 66 54 56 51 34 3 12 18 14 15 23 33 52 44 34 33 34 29 26 36 40 51 45 46 5 30 38 79 57 61 68 51 56 53 50
76 80 94 115 141 142 146 109 64 61 60 51 46 31 16 9 26 20 -8 24 37 33 42 22 14 21 30 25 27 109 118 138 117 111 142 127 109 101 84 50 33 34 28 22
82 82 132 188 172 152 100 53 59 50 42 55 47 38 25 9 27 23 34 37 33 47 25 8 31 17 14 17 91 116 104 112 113 141 119 86 77 61 50 45 43 42 37 40
70 151 220 193 150 55 69 86 75 70 57 42 43 29 37 29 26 47 53 38 18 7 16 45 38 30 70 100 137 135 125 112 97 75 62 60 59 57 58 56 50 42 36 39
163 176 188 190 49 117 101 92 81 63 64 37 28 18 59 35 52 50 48 52 27 -6 16 40 21 28 75 128 150 120 109 110 110 101 83 68 62 53 53 50 43 38 43 53
85 110 166 167 144 116 103 100 83 55 44 29 39 4 18 52 60 59 59 73 66 7 49 36 18 14 102 145 115 144 121 115 101 80 81 80 70 61 55 49 46 49 45 62
169 182 175 154 138 128 104 78 67 57 31 16 21 41 30 60 80 81 79 74 70 88 65 63 38 75 101 135 129 122 102 89 78 71 72 76 59 52 62 68 65 57 48 62
144 150 148 130 116 111 87 64 91 47 36 63 76 77 63 53 74 66 68 55 79 98 94 44 58 142 167 135 104 99 77 70 64 60 61 65 65 55 55 60 52 72 94 111
130 98 116 116 111 85 88 73 74 82 33 89 95 84 77 69 63 53 61 60 70 58 41 37 104 152 156 134 119 93 72 53 41 45 51 46 56 60 48 60 70 103 83 60
115 104 104 124 119 107 103 95 84 110 86 105 75 72 82 46 52 72 55 82 61 29 32 102 147 145 126 115 97 91 81 68 65 65 64 53 48 48 63 100 90 63 51 57
135 137 122 102 114 116 96 91 90 90 58 71 51 67 62 77 67 60 66 64 68 93 127 104 98 102 97 99 115 118 101 92 88 82 62 53 81 118 122 99 67 73 74 58

GFSNW_con_3kmhel_138.txt.gz
Helicity
268 497 697 552 385 315 363 416 331 232 156 364 276 289 291 283 274 229 217 224 202 173 171 171 168 167 166 123 85 105 99 116 59 90 5 1 41 35 52 143 123 43 46 38
465 697 602 472 381 420 477 388 426 288 299 330 340 353 393 332 285 236 210 195 176 173 176 168 162 178 124 127 100 104 100 129 161 167 60 31 32 49 57 51 70 76 65 63
577 531 589 430 319 297 463 424 410 433 338 302 305 367 354 363 212 203 202 188 195 198 186 192 154 167 128 78 82 48 63 88 97 122 85 55 47 69 62 59 55 58 85 33
708 636 432 358 364 410 508 386 231 326 292 315 335 355 281 291 234 194 177 177 120 125 158 164 171 154 152 114 72 62 61 90 49 39 46 61 35 34 40 45 39 66 50 42
625 458 418 342 362 399 425 365 329 391 221 302 350 279 231 182 167 152 149 121 123 120 137 126 127 138 129 108 58 36 41 27 38 51 56 68 91 84 54 61 60 50 29 90
435 444 391 337 307 340 387 370 380 324 294 326 263 216 149 124 161 152 85 129 167 173 116 106 71 61 54 51 38 28 38 35 23 34 29 49 71 82 35 43 119 59 23 29
483 411 298 228 186 391 351 294 294 338 311 197 146 110 154 153 113 127 127 138 162 112 102 84 73 50 31 22 6 46 49 30 38 24 30 91 71 20 -4 46 110 56 19 38
431 264 207 272 234 271 158 114 199 222 261 118 101 115 183 178 144 170 149 138 114 68 93 125 160 131 60 29 38 48 42 44 47 35 49 73 88 14 4 39 129 100 66 49
252 270 228 237 135 -71 102 115 197 161 249 115 121 204 143 197 230 208 174 153 80 79 113 132 136 133 80 48 49 75 51 40 47 35 31 31 79 16 48 40 82 33 -1 -40
182 184 101 24 -14 -30 97 98 106 94 91 258 182 193 173 134 166 163 132 88 97 84 105 133 132 120 48 43 42 47 39 50 74 52 48 27 82 -2 36 46 -35 -29 -45 -40
110 78 44 32 49 45 90 116 151 106 142 271 167 168 130 160 105 107 64 103 88 104 113 106 100 99 47 42 41 49 64 64 67 70 51 33 37 18 23 -38 -38 -28 -21 -10
47 -13 11 18 48 79 127 167 223 203 244 208 225 194 148 78 36 65 104 52 89 69 105 83 95 89 38 54 30 40 32 55 49 60 34 44 46 -43 27 30 -22 -5 -1 -25
128 130 123 110 119 115 133 214 238 299 285 306 263 234 196 125 94 58 62 62 56 69 52 77 78 78 14 39 12 34 40 52 55 49 32 47 1 -20 12 1 -24 -11 13 41
99 101 101 97 103 142 180 237 241 184 232 198 193 145 115 86 66 65 37 70 78 71 66 82 83 62 5 7 26 34 42 66 39 51 41 32 3 3 -7 -7 41 27 29 35
115 90 101 140 168 169 253 255 250 167 62 129 151 110 114 64 57 100 93 108 99 86 84 90 83 47 31 20 36 49 71 52 56 35 28 20 13 19 34 51 42 30 22 15
139 126 134 211 215 182 166 184 193 165 169 208 156 105 61 64 81 109 119 96 71 59 66 71 64 52 74 51 1 53 52 60 53 59 57 36 48 60 50 43 31 28 30 23
125 136 122 100 111 145 131 91 133 161 117 106 131 96 58 38 39 47 50 39 29 39 48 55 63 66 70 51 5 55 41 57 76 77 84 58 46 36 59 46 29 37 37 36
107 108 93 90 133 152 235 330 174 105 81 92 68 77 67 22 24 30 18 9 15 21 35 36 46 50 52 15 14 44 69 98 108 106 100 94 97 68 48 35 26 28 34 26
128 120 119 169 190 165 173 213 151 100 71 66 60 60 40 33 32 27 16 16 27 18 31 23 49 45 25 12 22 60 49 37 58 78 79 81 75 48 36 30 32 21 17 10
142 177 170 166 164 126 145 162 139 122 108 72 81 74 67 42 40 31 21 13 23 41 31 43 42 46 58 41 64 93 79 64 52 50 33 42 47 48 34 28 22 22 14 10
185 176 159 131 149 136 122 125 126 107 81 74 90 80 92 45 50 45 15 20 24 55 40 62 41 30 51 86 144 127 103 91 95 100 91 79 55 43 35 40 45 46 25 3
101 85 146 163 147 129 112 151 134 107 78 94 101 101 96 78 50 53 29 45 43 55 67 63 41 32 58 109 98 96 90 88 94 81 60 51 51 46 41 38 44 44 26 7
196 181 164 191 135 153 150 174 163 104 80 85 118 142 89 71 55 66 54 70 55 64 62 58 48 67 31 73 90 92 87 78 68 63 59 54 48 43 42 28 41 32 24 20
210 163 229 200 147 133 117 148 138 123 94 87 125 136 86 75 87 58 83 57 72 79 75 53 54 69 42 64 86 82 58 57 57 54 56 50 35 24 23 18 14 33 38 45
171 179 236 179 135 138 113 160 180 197 102 99 135 133 92 115 93 71 83 88 67 68 53 44 39 55 116 89 85 87 73 56 54 49 51 39 28 21 11 28 29 47 51 53
160 148 154 140 151 188 176 146 166 157 135 119 122 110 117 105 94 95 82 99 73 56 42 42 87 89 91 98 82 75 62 50 55 52 47 49 50 25 16 21 43 55 53 56
138 129 112 155 147 148 185 176 147 121 118 134 120 124 99 91 101 92 61 67 60 50 41 36 39 92 92 91 91 76 71 78 67 53 55 60 60 64 71 51 43 51 63 58

GFSNW_con_3kmhel_141.txt.gz
Helicity
60 82 103 615 694 583 669 576 398 352 437 356 349 320 330 309 296 274 289 281 288 273 250 262 214 170 140 95 93 68 85 80 44 82 82 18 20 49 64 82 102 85 90 93
88 83 164 574 714 657 600 590 463 313 348 230 259 228 247 293 257 282 288 264 228 209 250 226 189 186 166 155 96 74 83 111 120 164 141 71 36 75 71 58 80 55 111 77
75 78 331 590 628 484 600 518 468 350 201 305 259 265 293 356 287 289 232 242 232 262 233 212 164 189 127 119 107 108 98 120 107 110 183 85 54 73 56 72 80 60 65 -9
87 82 554 712 572 471 503 393 274 319 297 194 259 250 248 335 356 278 233 258 157 178 207 209 173 182 187 146 105 119 86 105 66 25 3 9 11 25 54 70 50 74 49 29
146 300 700 650 530 413 510 231 283 307 124 217 276 308 231 268 316 256 208 121 138 153 119 111 129 162 121 119 123 87 73 80 37 91 62 43 34 73 71 54 50 52 72 29
278 588 626 642 573 517 390 334 307 300 116 245 202 288 301 274 260 178 81 129 165 137 130 135 147 139 135 97 87 93 49 45 66 78 33 12 36 72 39 34 81 96 78 79
572 584 555 551 364 440 229 348 315 282 215 234 229 243 253 238 151 100 127 191 183 163 139 138 187 137 84 65 59 35 31 30 23 45 24 37 72 71 31 35 62 97 98 51
422 500 435 423 301 370 180 287 260 264 247 218 231 259 191 156 132 197 194 182 127 92 142 218 181 144 123 92 67 33 37 31 31 39 31 42 70 45 23 38 89 86 41 15
492 477 406 322 425 382 338 263 207 228 296 146 85 190 131 185 190 239 221 219 105 118 178 158 121 95 105 111 75 80 76 58 37 46 40 41 66 64 28 57 72 58 46 -41
437 416 386 363 273 245 195 180 115 153 206 205 107 170 176 156 206 218 178 138 143 134 130 125 101 112 104 104 86 54 60 57 48 76 50 21 75 53 -4 39 55 4 -10 26
391 334 262 125 180 131 108 112 133 101 106 214 148 209 188 222 163 167 122 167 131 111 108 81 84 103 102 92 61 40 42 47 55 69 59 34 48 14 24 57 26 -3 18 28
172 137 159 206 77 54 52 110 173 177 221 240 230 204 172 92 63 143 165 80 128 82 82 61 75 95 105 86 70 53 41 47 54 48 54 80 47 40 18 11 26 15 12 16
188 168 157 4 -47 29 72 125 177 351 353 381 328 318 302 181 127 109 118 86 69 65 69 72 78 91 80 89 57 66 46 54 50 50 64 49 46 24 9 17 23 29 38 37
17 -8 -6 41 38 69 138 176 207 207 213 234 248 242 203 207 112 91 74 51 93 85 86 88 83 91 57 81 62 43 53 66 40 33 43 66 45 22 20 32 66 57 50 44
38 29 38 51 107 182 268 266 258 243 81 241 205 173 186 135 106 119 126 105 83 81 72 74 76 78 78 81 57 32 61 66 61 51 52 73 46 42 51 67 58 51 40 42
141 118 126 161 164 206 241 213 172 208 249 287 215 171 113 118 146 182 153 112 89 59 56 61 62 65 87 96 67 19 28 62 56 46 54 69 84 78 67 66 52 49 53 43
160 153 139 109 82 123 78 80 128 156 172 185 190 134 102 92 99 119 103 73 41 30 33 35 43 51 70 82 82 35 28 64 66 52 82 68 48 51 75 60 50 54 46 36
90 135 175 177 144 162 240 360 198 126 80 114 100 115 88 74 58 50 54 29 14 17 12 11 19 27 29 27 26 38 39 74 77 67 67 84 106 94 79 65 46 40 35 23
107 136 188 232 216 181 252 283 190 96 64 67 95 80 48 43 45 50 41 13 13 2 6 11 13 26 20 26 40 57 53 38 47 69 64 61 74 66 61 49 41 34 19 11
157 214 218 199 174 245 227 203 145 126 118 96 103 90 73 36 41 40 20 9 13 9 13 34 24 36 14 25 39 64 60 73 52 38 27 42 53 50 53 49 38 24 19 14
192 192 199 199 198 186 162 140 133 124 100 100 90 69 87 48 41 56 25 24 21 33 24 23 30 66 52 41 102 103 109 102 90 89 92 90 65 48 41 41 45 48 38 18
126 108 182 179 160 149 106 149 135 112 81 98 66 67 80 81 55 44 30 45 32 48 42 39 54 73 54 70 92 96 87 80 92 92 82 66 62 54 43 32 27 38 19 11
214 219 174 130 155 140 122 124 124 98 78 95 99 120 85 65 53 55 44 52 52 48 44 43 50 73 69 73 71 80 79 79 80 73 63 65 71 68 49 19 16 1 12 24
194 200 198 181 192 143 110 122 115 80 70 150 150 152 76 54 73 48 71 57 50 72 56 45 56 68 72 77 71 81 77 71 61 52 53 62 65 59 49 42 21 19 31 33
180 184 245 207 166 125 105 128 135 140 138 173 155 117 74 97 69 67 74 69 66 51 53 41 38 77 94 108 89 84 93 79 61 42 40 45 46 46 51 57 56 68 59 59
151 157 166 173 202 177 142 137 162 207 178 143 123 95 88 83 80 91 76 87 72 62 51 50 56 84 96 99 84 61 69 67 60 44 38 40 37 48 58 51 73 88 91 82
172 192 135 159 179 176 142 95 116 142 140 134 96 104 90 87 103 90 62 75 59 51 40 38 31 51 77 100 106 101 88 74 73 72 64 59 53 45 50 76 81 96 97 69

GFSNW_con_3kmhel_144.txt.gz
Helicity
41 41 61 95 235 568 620 478 415 428 438 567 476 355 288 211 179 289 342 328 336 221 202 205 210 157 173 108 103 105 104 102 104 109 116 114 107 107 99 85 127 68 84 65
50 66 59 103 427 492 410 550 404 365 384 590 394 247 230 255 275 264 257 278 275 232 234 277 221 214 167 122 79 66 74 77 83 72 127 102 72 69 63 65 86 21 87 42
58 68 86 115 397 283 324 349 393 487 271 326 151 223 166 251 397 344 305 307 227 263 260 254 155 218 170 155 111 115 85 88 72 118 262 168 108 54 45 49 44 27 14 11
55 67 99 169 363 351 486 340 328 397 234 237 178 137 86 196 299 333 264 322 179 181 266 216 197 158 180 152 122 103 95 68 69 96 74 12 1 12 22 28 19 10 -16 6
63 92 87 304 304 341 422 290 271 366 268 200 183 98 96 78 144 181 188 192 133 141 161 154 131 146 134 122 114 115 97 98 97 81 54 57 34 23 46 45 23 9 17 25
68 110 101 256 369 328 273 308 252 421 185 162 192 125 142 70 192 226 145 151 195 108 98 119 108 114 145 95 114 108 85 82 98 112 48 34 38 50 54 47 50 61 57 115
76 112 55 292 442 244 288 255 440 306 178 145 134 88 118 182 176 146 144 32 156 130 158 221 225 206 170 131 123 60 79 67 69 95 50 124 117 96 54 31 23 51 44 52
5 57 91 345 407 272 262 345 345 294 203 66 99 110 163 145 95 145 115 145 98 100 172 202 193 159 145 141 82 58 48 38 67 83 82 98 55 67 48 52 64 59 43 43
131 87 214 421 371 344 446 359 379 215 198 111 117 222 175 213 252 233 131 181 180 167 188 170 119 90 95 78 86 67 32 17 41 59 90 78 130 76 38 24 59 73 44 28
177 271 387 433 383 386 398 234 150 169 246 136 97 124 127 78 119 172 189 175 121 181 174 129 90 97 92 80 80 78 72 53 50 52 41 61 99 80 38 31 93 72 49 48
336 350 401 389 401 400 150 250 279 201 249 295 165 153 103 30 75 151 105 167 151 126 106 86 79 65 90 99 72 78 78 82 68 65 48 62 53 62 41 95 75 66 47 39
330 364 449 594 445 321 318 280 159 145 304 267 85 155 216 128 109 190 134 119 160 105 94 69 70 59 86 75 73 60 78 63 63 35 73 106 69 81 87 61 50 44 33 34
390 494 401 270 302 373 279 222 65 257 287 223 155 238 215 190 132 112 151 105 110 84 113 85 63 60 59 86 69 89 60 64 62 53 52 61 63 62 56 39 30 30 38 38
449 410 363 334 342 154 168 158 160 191 237 314 251 228 245 243 127 89 76 98 106 114 108 69 50 56 49 63 75 65 73 69 63 48 56 68 48 55 47 42 47 38 47 46
224 292 348 306 166 87 187 271 206 254 119 249 240 190 251 149 93 89 80 68 77 68 71 49 53 56 45 70 63 65 56 66 70 53 74 73 64 47 37 51 47 51 39 42
193 272 119 92 70 87 171 238 197 168 296 398 236 201 168 134 120 134 129 111 103 69 52 47 42 44 32 27 44 60 52 55 67 67 68 82 64 72 80 72 68 64 56 53
117 107 63 59 34 105 128 103 97 196 181 295 250 142 132 170 131 133 108 91 64 48 28 24 23 19 13 18 23 64 64 67 66 53 64 62 29 52 83 82 74 59 57 51
107 112 122 100 74 108 166 323 158 150 106 170 127 136 92 122 68 69 88 38 28 26 20 13 -4 4 -8 -6 23 41 72 74 59 42 54 83 79 71 76 67 56 49 49 43
172 196 194 218 209 185 230 252 182 96 87 69 109 102 72 69 85 84 57 46 13 20 8 -3 -10 10 12 23 25 44 56 45 76 62 73 50 46 57 55 50 49 49 50 47
211 221 170 158 159 239 203 186 125 122 109 105 124 117 96 57 76 66 35 24 13 15 9 12 -1 24 49 38 57 79 81 78 58 53 48 44 42 45 46 49 55 53 49 40
212 165 147 196 212 195 171 150 144 118 98 102 113 37 87 93 52 60 42 24 21 29 21 8 30 48 70 71 118 120 126 105 89 91 91 93 75 52 44 49 48 46 55 53
112 120 211 201 169 158 132 153 143 131 105 109 61 69 118 118 95 42 32 35 22 39 30 25 50 67 82 97 117 109 93 98 98 86 84 84 73 67 67 64 62 71 72 62
262 281 208 184 160 139 136 122 120 78 75 74 74 114 105 86 64 43 31 31 39 39 30 48 54 73 68 96 110 116 89 81 90 89 75 68 75 83 84 87 88 73 82 74
211 224 192 192 181 148 133 114 81 102 65 99 105 163 60 51 55 30 44 48 35 49 52 60 52 59 69 98 98 120 108 94 86 82 75 70 69 78 86 78 74 79 89 90
201 204 187 155 140 116 108 130 97 119 141 145 144 113 81 78 49 46 49 49 54 42 62 63 56 63 87 99 107 98 81 92 80 75 81 82 76 68 74 75 76 86 86 90
171 152 158 161 135 131 101 108 177 206 160 147 134 101 81 71 55 56 56 71 66 64 69 58 55 70 76 84 87 89 88 82 76 77 82 87 76 67 70 62 76 88 89 82
218 193 161 197 149 117 156 148 198 188 134 136 120 111 100 61 74 80 70 82 75 68 55 46 48 58 73 90 106 112 111 105 100 105 96 91 86 74 67 81 99 87 83 75

GFSNW_con_3kmhel_150.txt.gz
Helicity
92 86 106 106 120 121 332 331 268 144 418 604 505 315 238 277 184 121 167 248 125 178 170 106 112 129 101 143 256 184 105 242 245 148 97 186 169 155 101 203 216 218 230 174
91 83 72 89 97 123 329 261 313 308 363 458 500 322 202 254 221 140 210 249 258 177 141 216 125 122 190 181 147 190 233 246 243 179 174 88 136 83 127 249 231 233 274 210
103 83 65 71 77 102 302 268 410 256 334 312 349 216 235 185 185 226 149 117 118 191 236 223 249 235 254 280 236 250 265 231 213 199 157 193 95 51 95 135 131 81 99 69
51 72 77 76 59 75 313 294 205 262 386 258 250 228 234 137 185 129 102 189 187 214 199 189 230 310 420 378 256 183 231 280 163 90 103 134 164 86 75 80 81 108 49 24
55 64 80 72 60 56 258 173 153 265 117 227 246 149 216 183 184 168 133 202 209 129 184 246 280 352 429 279 204 248 194 263 176 150 83 122 100 112 130 86 48 37 11 56
41 35 61 73 60 74 119 203 194 184 164 77 179 233 205 149 188 227 220 292 235 131 145 212 216 281 167 198 186 192 231 174 141 132 43 65 123 89 60 45 36 123 79 83
33 41 51 63 57 68 82 162 203 257 235 80 111 86 115 181 261 246 129 66 65 169 218 222 245 205 158 152 125 56 108 78 98 105 173 147 59 126 123 86 144 143 79 99
18 41 56 67 57 64 110 150 148 217 161 57 33 23 46 166 127 115 36 38 64 208 234 304 228 221 227 134 81 65 61 74 122 156 103 98 130 95 117 160 116 103 141 167
12 39 55 55 55 60 132 107 172 143 139 71 47 63 103 159 150 91 224 221 195 117 216 245 253 326 273 204 178 60 49 58 96 105 76 91 209 238 131 123 76 140 172 141
22 28 51 33 48 54 126 154 153 97 102 136 117 104 103 135 151 198 247 244 189 71 194 218 177 197 94 161 146 165 142 147 121 111 123 124 66 111 88 101 143 172 154 106
6 8 20 13 38 66 99 156 174 102 137 139 114 114 88 98 194 246 209 243 203 187 215 214 179 207 123 120 43 91 128 137 122 101 118 102 138 154 86 145 122 114 84 92
17 17 3 2 46 84 143 127 224 143 135 117 221 294 240 158 81 210 172 229 281 243 206 135 153 139 96 63 102 101 93 125 81 120 134 138 156 187 164 121 126 100 87 69
27 9 -3 10 82 74 147 262 263 278 236 356 229 201 149 136 101 117 162 218 52 44 106 99 132 81 76 88 90 94 68 94 105 111 105 130 147 151 109 118 120 94 82 62
20 9 -2 75 101 125 146 368 244 260 317 191 313 264 254 206 105 49 -40 140 103 71 100 120 116 110 64 54 73 70 93 97 100 125 114 190 126 102 115 102 93 79 83 85
7 52 98 81 122 152 224 300 219 188 219 263 300 258 187 127 101 114 100 122 111 86 126 107 91 117 94 134 117 107 87 56 98 89 81 156 103 183 100 73 69 55 66 63
115 67 109 225 199 306 340 205 172 124 58 463 435 284 133 80 62 68 56 34 51 80 68 115 105 89 95 65 61 117 102 152 147 152 106 139 150 107 65 52 56 91 73 73
226 272 352 318 242 277 274 256 173 45 199 402 483 491 237 118 122 138 181 165 161 131 122 81 37 77 100 63 72 92 102 144 104 220 195 119 84 102 90 99 102 76 86 76
457 376 310 209 240 260 223 300 281 204 180 322 406 404 212 117 118 143 80 112 123 95 78 85 60 53 61 51 94 89 72 137 168 153 126 93 155 107 82 78 64 64 69 64
408 319 221 288 245 302 216 265 245 127 78 136 219 303 219 117 77 122 136 93 94 83 76 64 39 35 42 67 56 70 115 91 123 113 121 101 89 89 77 84 82 77 76 80
118 238 469 473 320 169 229 180 114 130 97 114 87 153 144 114 127 131 102 94 66 64 56 45 50 60 77 68 95 104 118 116 114 129 115 115 108 101 93 126 114 88 93 92
486 506 474 265 107 210 209 171 159 128 152 79 57 83 150 122 115 148 93 86 80 65 37 29 23 27 63 51 121 133 122 183 176 150 128 98 102 116 113 128 103 88 98 116
322 348 276 261 187 190 172 208 173 171 99 48 58 82 120 152 154 127 106 98 84 41 62 48 27 68 87 100 123 142 155 158 187 180 170 180 188 145 129 92 95 120 110 98
267 379 351 255 182 190 220 271 199 106 95 80 81 124 194 189 149 120 100 57 38 47 55 54 61 91 79 98 111 124 115 119 117 120 125 127 121 112 106 129 115 107 120 109
431 494 463 305 238 221 320 131 75 124 92 114 103 148 138 172 148 78 63 68 45 42 52 69 90 84 94 115 90 99 115 146 129 121 111 108 106 117 126 115 111 123 119 109
331 236 262 185 189 175 260 172 101 143 120 125 135 187 168 150 76 66 47 48 48 36 77 147 131 114 120 106 97 121 136 152 177 162 135 108 99 107 111 103 110 109 100 107
108 119 121 182 180 203 211 152 111 109 111 138 172 140 102 93 51 44 33 42 47 72 118 134 129 118 115 98 122 188 117 118 128 126 121 115 94 79 101 100 103 92 89 75
157 145 177 149 239 262 265 283 260 206 142 185 165 121 97 55 45 58 55 76 102 156 158 116 98 109 154 181 198 152 125 131 122 119 109 97 109 99 86 81 80 67 87 64